Flag for Grenada Weather past 2 weeks in Saint George's, Grenada

Now
86 °F

Scattered clouds.


Feels Like: 97 °F
Forecast: 73 / 80 °F
Wind: 17 mph from East

Location: Point Salines Airport

Current Time: Dec 22, 2014 at 2:07:13 PM

Latest Report: Dec 22, 2014 at 1:00 PM


Visibility: N/A

Pressure: 29.92 "Hg

Humidity: 75%

Dew point: 77 °F

Location of Saint George'sLocation

Historic Weather in Saint George's — Graph

°F

Saint George's temperature yesterday

Maximum temperature yesterday: 86 °F (at 11:00 AM)
Minimum temperature yesterday: 77 °F (at 4:00 AM)
Average temperature yesterday: 81 °F

Past Weeks' High & Low Weather Summary

 TemperatureHumidityPressure
High86 °F (Dec 7, 1:00 PM)100% (Dec 13, 9:00 AM)30.01 "Hg (Dec 13, 9:00 AM)
Low68 °F (Dec 19, 1:00 PM)66% (Dec 12, 10:00 AM)29.80 "Hg (Dec 9, 4:00 PM)
Average81 °F84%29.90 "Hg
* Reported Dec 7 1:00 PM — Dec 22 1:00 PM, Saint George's, Weather by CustomWeather, © 2014

Note: Actual official high and low records may vary slightly from our data, if they occured in-between our weather recording intervals... More about our weather records

Advertising

Saint George's weather history for previous 24 hours

 ConditionsComfort  
Time TempWeatherWind HumidityBarometerVisibility
1:00 PM
Dec 22
86 °FScattered clouds.17 mph75%29.92 "HgN/A
12:00 PM86 °FPassing clouds.17 mph75%29.95 "HgN/A
11:00 AM86 °FPassing clouds.17 mph70%29.98 "HgN/A
10:00 AM86 °FPassing clouds.17 mph66%29.98 "HgN/A
9:00 AM84 °FPassing clouds.18 mph70%29.98 "HgN/A
8:00 AM81 °FPassing clouds.16 mph79%29.98 "HgN/A
7:00 AM79 °FPassing clouds.12 mph84%29.95 "HgN/A
6:00 AM79 °FPassing clouds.13 mph84%29.92 "HgN/A
5:00 AM79 °FPassing clouds.16 mph84%29.92 "HgN/A
4:00 AM79 °FPassing clouds.15 mph84%29.89 "HgN/A
3:00 AM79 °FPassing clouds.14 mph84%29.92 "HgN/A
1:00 AM79 °FPassing clouds.12 mph84%29.95 "HgN/A
12:00 AM79 °FPassing clouds.16 mph84%29.98 "HgN/A
10:00 PM
Dec 21
79 °FPassing clouds.10 mph84%29.98 "HgN/A
9:00 PM79 °FPassing clouds.16 mph89%29.98 "HgN/A
8:00 PM79 °FPassing clouds.13 mph84%29.95 "HgN/A
7:00 PM81 °FPassing clouds.12 mph84%29.92 "HgN/A
6:00 PM81 °FPassing clouds.13 mph84%29.92 "HgN/A
5:00 PM82 °FPassing clouds.13 mph79%29.89 "HgN/A
4:00 PM84 °FScattered clouds.16 mph74%29.89 "HgN/A
3:00 PM84 °FScattered clouds.17 mph74%29.89 "HgN/A
2:00 PM86 °FPartly sunny.22 mph70%29.92 "HgN/A
Weather by CustomWeather, © 2014

See weather overviewHow to use our weather pages